Weather History for De Kooy, Netherlands

Change the Weather History Date:

Sunday, March 10, 2013

  Actual Average Record
Temperature  
Mean Temperature 32 °F -  
Max Temperature 34 °F 47 °F 54 °F (2014)
Min Temperature 30 °F 37 °F 30 °F (2013)
Degree Days  
Heating Degree Days 33    
Moisture  
Dew Point 27 °F    
Average Humidity 79    
Maximum Humidity 100    
Minimum Humidity 65    
Precipitation  
Precipitation 0.00 in 0.06 in - ()
Sea Level Pressure  
Sea Level Pressure 29.68 in    
Wind  
Wind Speed 24 mph ()    
Max Wind Speed 29 mph    
Max Gust Speed -    
Visibility 6.3 miles    
Events Rain , Snow    
Averages and records for this station are not official NWS values.
T = Trace of Precipitation, MM = Missing Value Source: Averaged Metar Reports

Daily Weather History Graph

Daily Weather History Graph

Search for Another Location

Airport:

Trip Planner

Search our weather history database for the weather conditions in past years. The results will help you decide how hot, cold, wet, or windy it might be!

Date:

Astronomy

Mar. 10, 2013 Rise Set
Actual Time 7:06 AM CET 6:36 PM CET
Civil Twilight 6:32 AM CET 7:10 PM CET
Nautical Twilight 5:52 AM CET 7:50 PM CET
Astronomical Twilight 5:11 AM CET 8:31 PM CET
Moon 6:05 AM CET (3/10) 5:23 PM CET (3/10)
Length of Visible Light 12h 37m
Length of Day
11h 29m
Waning Crescent, 2% of the Moon is Illuminated
Mar 10
Waning Crescent
Mar 11
New
Mar 19
First Quarter
Mar 27
Full
Apr 3
Last Quarter

Hourly Weather History & Observations

Time (CET) Temp. Windchill Dew Point Humidity Pressure Visibility Wind Dir Wind Speed Gust Speed Precip Events Conditions
12:05 AM 33.8 °F 22.2 °F 32.0 °F 93% 29.56 in - NE 20.7 mph - N/A Snow Light Snow
12:18 AM 33.8 °F 21.9 °F 33.8 °F 100% 29.56 in 3.1 mi NE 21.9 mph - N/A Snow Light Snow
12:25 AM 33.8 °F 21.9 °F 32.0 °F 93% 29.56 in 3.1 mi NE 21.9 mph - N/A Snow Light Snow
12:47 AM 33.8 °F 21.6 °F 32.0 °F 93% 29.56 in 3.7 mi NE 23.0 mph - N/A Snow Light Snow
12:55 AM 33.8 °F 21.6 °F 32.0 °F 93% 29.56 in 4.3 mi NE 23.0 mph - N/A Rain Rain
1:00 AM 34 °F - 32 °F 90% 29.58 in 5 mi NE 22.4 mph - - Snow Light Snow
1:06 AM 33.8 °F 21.3 °F 32.0 °F 93% 29.56 in 5.0 mi NE 24.2 mph - N/A Rain Rain
1:19 AM 33.8 °F 21.6 °F 32.0 °F 93% 29.56 in 6.2 mi NE 23.0 mph - N/A   Overcast
1:25 AM 33.8 °F 21.6 °F 32.0 °F 93% 29.56 in 6.2 mi NE 23.0 mph - N/A   Mostly Cloudy
1:55 AM 33.8 °F 21.0 °F 32.0 °F 93% 29.56 in 6.2 mi NE 25.3 mph - N/A   Overcast
2:25 AM 33.8 °F 21.3 °F 32.0 °F 93% 29.56 in 6.2 mi NE 24.2 mph - N/A   Overcast
2:55 AM 33.8 °F 21.0 °F 30.2 °F 87% 29.59 in 6.2 mi NE 25.3 mph - N/A   Overcast
3:25 AM 33.8 °F 21.3 °F 32.0 °F 93% 29.59 in 6.2 mi NE 24.2 mph - N/A   Overcast
3:55 AM 33.8 °F 20.8 °F 30.2 °F 87% 29.56 in 6.2 mi NE 26.5 mph - N/A   Overcast
4:00 AM 34 °F - 31 °F 82% 29.59 in 11 mi NE 26.8 mph - -   Overcast
4:25 AM 33.8 °F 21.3 °F 30.2 °F 87% 29.59 in 6.2 mi NE 24.2 mph - N/A   Overcast
4:55 AM 33.8 °F 21.0 °F 30.2 °F 87% 29.59 in 6.2 mi NE 25.3 mph - N/A   Overcast
5:25 AM 33.8 °F 21.0 °F 30.2 °F 87% 29.59 in 6.2 mi NE 25.3 mph - N/A   Overcast
5:29 AM 33.8 °F 20.5 °F 30.2 °F 87% 29.59 in 6.2 mi ENE 27.6 mph - N/A   Overcast
5:33 AM 33.8 °F 20.8 °F 30.2 °F 87% 29.59 in 6.2 mi ENE 26.5 mph - N/A   Mostly Cloudy
5:45 AM 33.8 °F 20.8 °F 30.2 °F 87% 29.59 in 6.2 mi NE 26.5 mph - N/A   Overcast
5:55 AM 33.8 °F 21.0 °F 30.2 °F 87% 29.59 in 6.2 mi ENE 25.3 mph - N/A   Overcast
6:07 AM 33.8 °F 20.8 °F 30.2 °F 87% 29.59 in 6.2 mi ENE 26.5 mph - N/A   Mostly Cloudy
6:12 AM 33.8 °F 21.0 °F 30.2 °F 87% 29.59 in 6.2 mi ENE 25.3 mph - N/A   Overcast
6:25 AM 33.8 °F 20.5 °F 30.2 °F 87% 29.59 in 6.2 mi ENE 27.6 mph - N/A   Overcast
6:26 AM 33.8 °F 21.0 °F 30.2 °F 87% 29.59 in 6.2 mi NE 25.3 mph - N/A   Mostly Cloudy
6:27 AM 33.8 °F 21.0 °F 30.2 °F 87% 29.59 in 6.2 mi NE 25.3 mph - N/A   Mostly Cloudy
6:37 AM 33.8 °F 20.8 °F 28.4 °F 81% 29.59 in 6.2 mi ENE 26.5 mph - N/A   Overcast
6:39 AM 33.8 °F 20.8 °F 28.4 °F 81% 29.59 in 6.2 mi ENE 26.5 mph - N/A   Overcast
6:55 AM 33.8 °F 20.8 °F 28.4 °F 81% 29.59 in 6.2 mi NE 26.5 mph - N/A   Overcast
7:00 AM 33.8 °F 20.8 °F 28.4 °F 81% 29.59 in 6.2 mi NE 26.5 mph - N/A   Overcast
7:03 AM 33.8 °F 20.8 °F 28.4 °F 81% 29.62 in 6.2 mi NE 26.5 mph - N/A   Overcast
7:06 AM 33.8 °F 20.5 °F 28.4 °F 81% 29.62 in 6.2 mi ENE 27.6 mph - N/A   Overcast
7:07 AM 33.8 °F 20.8 °F 28.4 °F 81% 29.62 in 6.2 mi ENE 26.5 mph - N/A   Overcast
7:25 AM 33.8 °F 21.3 °F 30.2 °F 87% 29.62 in 6.2 mi ENE 24.2 mph - N/A   Overcast
7:55 AM 33.8 °F 21.0 °F 30.2 °F 87% 29.62 in 6.2 mi ENE 25.3 mph - N/A   Overcast
8:01 AM 33.8 °F 20.8 °F 30.2 °F 87% 29.62 in 6.2 mi NE 26.5 mph - N/A   Overcast
8:05 AM 33.8 °F 20.5 °F 28.4 °F 81% 29.62 in 6.2 mi NE 27.6 mph - N/A   Overcast
8:14 AM 33.8 °F 20.5 °F 28.4 °F 81% 29.62 in 6.2 mi NE 27.6 mph - N/A   Overcast
8:25 AM 33.8 °F 20.5 °F 28.4 °F 81% 29.62 in 6.2 mi NE 27.6 mph - N/A   Overcast
8:27 AM 33.8 °F 20.5 °F 28.4 °F 81% 29.62 in 6.2 mi NE 27.6 mph - N/A   Overcast
8:33 AM 33.8 °F 20.5 °F 28.4 °F 81% 29.62 in 6.2 mi NE 27.6 mph - N/A   Overcast
8:37 AM 33.8 °F 20.3 °F 28.4 °F 81% 29.62 in 6.2 mi NE 28.8 mph - N/A   Overcast
8:41 AM 33.8 °F 20.3 °F 28.4 °F 81% 29.62 in 6.2 mi NE 28.8 mph - N/A   Overcast
8:46 AM 33.8 °F 20.5 °F 28.4 °F 81% 29.62 in 6.2 mi NE 27.6 mph - N/A   Overcast
8:55 AM 33.8 °F 20.8 °F 28.4 °F 81% 29.65 in 6.2 mi NE 26.5 mph - N/A   Overcast
9:25 AM 33.8 °F 20.5 °F 28.4 °F 81% 29.65 in 6.2 mi ENE 27.6 mph - N/A   Overcast
9:55 AM 33.8 °F 20.5 °F 28.4 °F 81% 29.65 in 6.2 mi ENE 27.6 mph - N/A   Overcast
10:25 AM 33.8 °F 21.0 °F 28.4 °F 81% 29.65 in 6.2 mi ENE 25.3 mph - N/A   Overcast
10:44 AM 33.8 °F 20.8 °F 28.4 °F 81% 29.65 in 6.2 mi ENE 26.5 mph - N/A   Overcast
10:45 AM 33.8 °F 20.5 °F 28.4 °F 81% 29.65 in 6.2 mi ENE 27.6 mph - N/A   Overcast
10:55 AM 33.8 °F 20.8 °F 26.6 °F 75% 29.65 in 6.2 mi ENE 26.5 mph - N/A   Overcast
11:08 AM 33.8 °F 20.8 °F 26.6 °F 75% 29.65 in 6.2 mi ENE 26.5 mph - N/A   Overcast
11:21 AM 33.8 °F 20.5 °F 28.4 °F 81% 29.65 in 6.2 mi ENE 27.6 mph - N/A   Overcast
11:23 AM 33.8 °F 20.5 °F 26.6 °F 75% 29.65 in 6.2 mi ENE 27.6 mph - N/A   Overcast
11:25 AM 33.8 °F 20.8 °F 28.4 °F 81% 29.65 in 6.2 mi ENE 26.5 mph - N/A   Mostly Cloudy
11:27 AM 33.8 °F 20.5 °F 26.6 °F 75% 29.65 in 6.2 mi ENE 27.6 mph - N/A   Overcast
11:28 AM 33.8 °F 20.8 °F 28.4 °F 81% 29.65 in 6.2 mi ENE 26.5 mph - N/A   Overcast
11:55 AM 33.8 °F 20.8 °F 26.6 °F 75% 29.68 in 6.2 mi ENE 26.5 mph - N/A   Overcast
12:25 PM 33.8 °F 20.8 °F 26.6 °F 75% 29.68 in 6.2 mi NE 26.5 mph - N/A   Overcast
12:46 PM 33.8 °F 20.5 °F 26.6 °F 75% 29.68 in 6.2 mi NE 27.6 mph - N/A   Overcast
12:55 PM 33.8 °F 20.8 °F 26.6 °F 75% 29.68 in 6.2 mi NE 26.5 mph - N/A   Mostly Cloudy
12:57 PM 33.8 °F 20.5 °F 26.6 °F 75% 29.68 in 6.2 mi NE 27.6 mph - N/A   Overcast
1:00 PM 33 °F - 27 °F 70% 29.70 in 16 mi NE 26.8 mph - -   Partly Cloudy
1:02 PM 33.8 °F 21.0 °F 26.6 °F 75% 29.68 in 6.2 mi NE 25.3 mph - N/A   Overcast
1:06 PM 33.8 °F 21.3 °F 26.6 °F 75% 29.68 in 6.2 mi NE 24.2 mph - N/A   Overcast
1:25 PM 33.8 °F 21.0 °F 26.6 °F 75% 29.68 in 6.2 mi ENE 25.3 mph - N/A   Overcast
1:46 PM 33.8 °F 21.0 °F 26.6 °F 75% 29.68 in 6.2 mi NE 25.3 mph - N/A   Mostly Cloudy
1:55 PM 33.8 °F 20.8 °F 26.6 °F 75% 29.68 in 6.2 mi NE 26.5 mph - N/A   Overcast
2:02 PM 33.8 °F 21.3 °F 26.6 °F 75% 29.68 in 6.2 mi NE 24.2 mph - N/A   Overcast
2:10 PM 33.8 °F 21.0 °F 24.8 °F 70% 29.68 in 6.2 mi ENE 25.3 mph - N/A   Overcast
2:14 PM 33.8 °F 21.0 °F 26.6 °F 75% 29.68 in 6.2 mi ENE 25.3 mph - N/A   Overcast
2:19 PM 33.8 °F 21.3 °F 26.6 °F 75% 29.68 in 6.2 mi NE 24.2 mph - N/A   Overcast
2:25 PM 33.8 °F 21.3 °F 26.6 °F 75% 29.68 in 6.2 mi NE 24.2 mph - N/A   Overcast
2:43 PM 33.8 °F 21.3 °F 26.6 °F 75% 29.68 in 6.2 mi NE 24.2 mph - N/A   Overcast
2:47 PM 33.8 °F 21.0 °F 26.6 °F 75% 29.68 in 6.2 mi NE 25.3 mph - N/A   Mostly Cloudy
2:55 PM 33.8 °F 21.3 °F 26.6 °F 75% 29.68 in 6.2 mi NE 24.2 mph - N/A   Overcast
3:06 PM 33.8 °F 20.8 °F 26.6 °F 75% 29.68 in 6.2 mi NE 26.5 mph - N/A   Overcast
3:10 PM 33.8 °F 20.8 °F 26.6 °F 75% 29.71 in 6.2 mi NE 26.5 mph - N/A   Overcast
3:15 PM 33.8 °F 20.8 °F 26.6 °F 75% 29.71 in 6.2 mi NE 26.5 mph - N/A   Mostly Cloudy
3:19 PM 33.8 °F 20.5 °F 26.6 °F 75% 29.71 in 6.2 mi NE 27.6 mph - N/A   Mostly Cloudy
3:25 PM 33.8 °F 20.5 °F 26.6 °F 75% 29.71 in 6.2 mi NE 27.6 mph - N/A   Overcast
3:39 PM 33.8 °F 20.8 °F 26.6 °F 75% 29.71 in 6.2 mi ENE 26.5 mph - N/A   Overcast
3:55 PM 33.8 °F 21.0 °F 26.6 °F 75% 29.71 in 6.2 mi ENE 25.3 mph - N/A   Overcast
3:57 PM 33.8 °F 21.0 °F 26.6 °F 75% 29.71 in 6.2 mi ENE 25.3 mph - N/A   Overcast
4:00 PM 33 °F - 26 °F 65% 29.72 in 22 mi ENE 24.6 mph - -   Overcast
4:02 PM 33.8 °F 21.0 °F 24.8 °F 70% 29.71 in 6.2 mi ENE 25.3 mph - N/A   Mostly Cloudy
4:06 PM 33.8 °F 21.0 °F 26.6 °F 75% 29.71 in 6.2 mi ENE 25.3 mph - N/A   Overcast
4:15 PM 33.8 °F 21.6 °F 26.6 °F 75% 29.71 in 6.2 mi ENE 23.0 mph - N/A   Overcast
4:25 PM 33.8 °F 21.3 °F 26.6 °F 75% 29.71 in 6.2 mi ENE 24.2 mph - N/A   Overcast
4:30 PM 33.8 °F 20.8 °F 26.6 °F 75% 29.71 in 6.2 mi NE 26.5 mph - N/A   Overcast
4:46 PM 33.8 °F 21.6 °F 26.6 °F 75% 29.71 in 6.2 mi NE 23.0 mph - N/A   Mostly Cloudy
4:55 PM 33.8 °F 21.3 °F 26.6 °F 75% 29.71 in 6.2 mi NE 24.2 mph - N/A   Mostly Cloudy
5:08 PM 33.8 °F 21.3 °F 24.8 °F 70% 29.71 in 6.2 mi ENE 24.2 mph - N/A   Overcast
5:12 PM 33.8 °F 21.3 °F 24.8 °F 70% 29.71 in 6.2 mi ENE 24.2 mph - N/A   Mostly Cloudy
5:16 PM 33.8 °F 21.0 °F 26.6 °F 75% 29.71 in 6.2 mi ENE 25.3 mph - N/A   Overcast
5:25 PM 33.8 °F 21.3 °F 26.6 °F 75% 29.71 in 6.2 mi ENE 24.2 mph - N/A   Overcast
5:54 PM 32.0 °F 18.4 °F 26.6 °F 80% 29.71 in 6.2 mi ENE 26.5 mph - N/A   Overcast
5:55 PM 32.0 °F 18.4 °F 26.6 °F 80% 29.71 in 6.2 mi ENE 26.5 mph - N/A   Mostly Cloudy
5:59 PM 32.0 °F 18.4 °F 26.6 °F 80% 29.71 in 6.2 mi ENE 26.5 mph - N/A   Mostly Cloudy
6:00 PM 32.0 °F 18.4 °F 26.6 °F 80% 29.71 in 6.2 mi NE 26.5 mph - N/A   Mostly Cloudy
6:01 PM 32.0 °F 18.4 °F 26.6 °F 80% 29.71 in 6.2 mi NE 26.5 mph - N/A   Mostly Cloudy
6:25 PM 32.0 °F 18.1 °F 26.6 °F 80% 29.74 in 6.2 mi NE 27.6 mph - N/A   Overcast
6:34 PM 32.0 °F 18.1 °F 26.6 °F 80% 29.74 in 6.2 mi ENE 27.6 mph - N/A   Overcast
6:37 PM 32.0 °F 18.4 °F 26.6 °F 80% 29.74 in 6.2 mi ENE 26.5 mph - N/A   Overcast
6:39 PM 32.0 °F 18.1 °F 26.6 °F 80% 29.74 in 6.2 mi NE 27.6 mph - N/A   Overcast
6:40 PM 32.0 °F 18.1 °F 26.6 °F 80% 29.74 in 6.2 mi NE 27.6 mph - N/A   Mostly Cloudy
6:51 PM 32.0 °F 18.1 °F 24.8 °F 75% 29.74 in 6.2 mi ENE 27.6 mph - N/A   Overcast
6:55 PM 32.0 °F 18.1 °F 24.8 °F 75% 29.74 in 6.2 mi ENE 27.6 mph - N/A   Overcast
6:58 PM 32.0 °F 18.6 °F 26.6 °F 80% 29.74 in 6.2 mi ENE 25.3 mph - N/A   Overcast
7:00 PM 32 °F - 26 °F 70% 29.76 in 16 mi ENE 24.6 mph - -   Unknown Precipitation
7:01 PM 32.0 °F 18.6 °F 26.6 °F 80% 29.74 in 6.2 mi ENE 25.3 mph - N/A   Mostly Cloudy
7:02 PM 32.0 °F 18.4 °F 26.6 °F 80% 29.74 in 6.2 mi ENE 26.5 mph - N/A   Mostly Cloudy
7:16 PM 32.0 °F 18.6 °F 24.8 °F 75% 29.74 in 6.2 mi ENE 25.3 mph - N/A   Overcast
7:25 PM 32.0 °F 18.6 °F 24.8 °F 75% 29.74 in 6.2 mi ENE 25.3 mph - N/A   Overcast
7:30 PM 32.0 °F 18.9 °F 24.8 °F 75% 29.74 in 6.2 mi ENE 24.2 mph - N/A   Mostly Cloudy
7:37 PM 32.0 °F 18.9 °F 24.8 °F 75% 29.77 in 6.2 mi ENE 24.2 mph - N/A   Overcast
7:41 PM 32.0 °F 18.9 °F 24.8 °F 75% 29.77 in 6.2 mi ENE 24.2 mph - N/A   Mostly Cloudy
7:45 PM 32.0 °F 18.9 °F 24.8 °F 75% 29.77 in 6.2 mi ENE 24.2 mph - N/A   Overcast
7:49 PM 32.0 °F 19.2 °F 26.6 °F 80% 29.77 in 6.2 mi ENE 23.0 mph - N/A Snow Light Snow Grains
7:55 PM 32.0 °F 19.2 °F 26.6 °F 80% 29.77 in 6.2 mi ENE 23.0 mph - N/A Snow Light Snow Grains
8:25 PM 32.0 °F 18.4 °F 24.8 °F 75% 29.77 in 6.2 mi ENE 26.5 mph - N/A   Mostly Cloudy
8:55 PM 32.0 °F 18.6 °F 24.8 °F 75% 29.77 in 6.2 mi ENE 25.3 mph - N/A   Mostly Cloudy
8:59 PM 32.0 °F 18.6 °F 24.8 °F 75% 29.77 in 6.2 mi ENE 25.3 mph - N/A   Mostly Cloudy
9:03 PM 32.0 °F 18.6 °F 24.8 °F 75% 29.77 in 6.2 mi ENE 25.3 mph - N/A Snow Light Snow Grains
9:07 PM 30.2 °F 15.9 °F 24.8 °F 80% 29.77 in 6.2 mi ENE 26.5 mph - N/A Snow Light Snow Grains
9:25 PM 30.2 °F 15.9 °F 23.0 °F 75% 29.77 in 6.2 mi ENE 26.5 mph - N/A   Mostly Cloudy
9:55 PM 30.2 °F 16.2 °F 24.8 °F 80% 29.77 in 6.2 mi ENE 25.3 mph - N/A   Mostly Cloudy
10:00 PM 31 °F - 24 °F 66% 29.79 in 14 mi ENE 24.6 mph - - Snow Light Snow Showers
10:04 PM 30.2 °F 16.2 °F 24.8 °F 80% 29.77 in 6.2 mi ENE 25.3 mph - N/A Snow Light Snow
10:08 PM 30.2 °F 16.2 °F 24.8 °F 80% 29.77 in 6.2 mi ENE 25.3 mph - N/A Snow Light Snow
10:25 PM 30.2 °F 15.9 °F 23.0 °F 75% 29.77 in 6.2 mi ENE 26.5 mph - N/A   Mostly Cloudy
10:55 PM 30.2 °F 16.8 °F 23.0 °F 75% 29.80 in 6.2 mi ENE 23.0 mph - N/A   Overcast
11:01 PM 30.2 °F 16.5 °F 23.0 °F 75% 29.77 in 6.2 mi ENE 24.2 mph - N/A   Mostly Cloudy
11:07 PM 30.2 °F 16.2 °F 23.0 °F 75% 29.77 in 6.2 mi ENE 25.3 mph - N/A   Mostly Cloudy
11:11 PM 30.2 °F 16.5 °F 23.0 °F 75% 29.80 in 6.2 mi ENE 24.2 mph - N/A   Mostly Cloudy
11:15 PM 30.2 °F 16.5 °F 23.0 °F 75% 29.80 in 6.2 mi ENE 24.2 mph - N/A   Overcast
11:25 PM 30.2 °F 16.2 °F 23.0 °F 75% 29.80 in 6.2 mi ENE 25.3 mph - N/A   Mostly Cloudy
11:55 PM 30.2 °F 15.9 °F 23.0 °F 75% 29.80 in 6.2 mi ENE 26.5 mph - N/A   Overcast